Regional Weather Roundup
Issued by NWS Charleston, SC

Current Version | Previous Version | Graphics & Text | Print | Product List | Glossary On
Versions: 1 2 3 4 5 6 7 8 9 10 11 12 13 14 15 16 17 18 19 20 21 22 23 24 25 26 27 28 29 30 31 32 33 34 35 36 37 38 39 40 41 42 43 44 45 46 47 48 49 50
000
ASUS42 KCHS 201010
RWRCHS
REGIONAL WEATHER ROUNDUP
NATIONAL WEATHER SERVICE CHARLESTON SC
600 AM EDT SAT SEP 20 2014

NOTE: "FAIR" INDICATES FEW OR NO CLOUDS BELOW 12,000 FEET WITH NO
SIGNIFICANT WEATHER AND/OR OBSTRUCTIONS TO VISIBILITY.

NOT ALL STATIONS ARE QUALITY CONTROLLED BY THE NATIONAL
WEATHER SERVICE. USE DATA WITH CAUTION...ESPECIALLY
DEWPOINT OBSERVATIONS.

SCZ027-030-031-034>040-042>050-201100-
...SOUTH CAROLINA...

CITY           SKY/WX    TMP DP  RH WIND       PRES   REMARKS
N CHARLESTON   LGT RAIN  71  67  87 NE8       30.05S
WATERFRONT PRK   N/A     73 N/A N/A NE13        N/A
FORT JOHNSON   NOT AVBL
MOUNT PLEASANT FAIR      70  70 100 N5        30.05S FOG
JOHNS ISLAND   LGT RAIN  72  72 100 NE10G16   30.05S
PINOPOLIS        N/A     72  66  83 NE14      30.01R
MONCKS CORNER    N/A     70  68  94 NE7       30.07R
SUMMERVILLE    FAIR      68  68 100 NE5       30.08S
BEAUFORT MCAS  CLOUDY    72  69  90 W9        30.03S
BEAUFORT ARPT  FAIR      72  72 100 NE15      30.02S
HILTON HEAD IS NOT AVBL
GEORGETOWN     NOT AVBL
WALTERBORO     PTSUNNY   70 N/A N/A NE5       30.08R
ORANGEBURG     CLEAR     66  61  84 NE7       30.10R
BARNWELL       FAIR      66  64  94 NE9       30.09R
AIKEN          FAIR      64  64 100 NE10      30.15R
MANNING        FAIR      64  64 100 N8        30.10R
KINGSTREE      NOT AVBL
COLUMBIA       CLEAR     67  58  72 NE8       30.12R
SUMTER         CLEAR     63  58  84 NE10      30.11R
FLORENCE       MOCLDY    64  59  83 NE8       30.13R
MYRTLE BEACH   CLEAR     68  61  77 NE13      30.08S
N MYRTLE BEACH CLOUDY    67  61  81 NE12      30.09S

$$

GAZ063-065-086>088-099>101-113>116-118-119-134-136>141-150-201100-
...GEORGIA...

CITY           SKY/WX    TMP DP  RH WIND       PRES   REMARKS
SAVANNAH ARPT  MOCLDY    72  68  87 NE8       30.03R
HUNTER AAF     CLOUDY    72  72 100 NE9       29.99F
FORT STEWART   CLOUDY    70  68  92 N10       30.00R
STATESBORO     NOT AVBL
SYLVANIA       CLOUDY    72  71  95 NE10      30.07R
CLAXTON        CLOUDY    72  72 100 NE8       30.04R
THOMSON        CLEAR     68  68 100 NE5       30.16R
AUGUSTA-BUSH   CLEAR     67  63  87 NE6       30.09R
AUGUSTA-DANIEL CLEAR     68  63  84 NE13G25   30.11R
SWAINSBORO     CLOUDY    72  72 100 NE6       30.07R FOG
VIDALIA        CLOUDY    70  68  94 NE8       30.04S
ALMA           CLOUDY    70  67  90 VRB5      30.01R
WAYCROSS       CLOUDY    73  72  96 NE6       29.99R
JESUP          CLOUDY    73  72  94 NE6       30.00S
BRUNSWICK      CLOUDY    72  70  94 CALM      29.99R
SAINT SIMONS   LGT RAIN  74  70  87 NE18      29.96F

$$

SCZ027-028-034-036>038-045-046-048>050-GAZ119-141-201100-
...LAKE AND SUPPLEMENTAL COASTAL OBSERVATIONS...

STATION/POSITION TIME  TEMP    WIND        PRES    WAVE   SWELL
                       AIR SEA DIR/SP/G            HT/PER HT/PER/DIR
                 (UTC) (F)     (DEG/KT/KT) (MB)    (FT/S) (FT/S/D)
UPR LAKE MARION  NOT AVBL
WINYAH BAY       0900   71      30/ 10     1018.0S
LAKE MURRAY      0900   66      30/  4/  5 1019.6S
ACE BASIN NERRS  0900   70      20/  3     1017.0S
FORT PULASKI     1000   78      40/ 18/ 24 1016.2S
SAPELO ISLAND    0900   73      70/ 10     1015.0S

$$

ANZ835-935-AMZ111-154-330-350-352-354-374-450-454-472-201100-
...C-MAN AND BUOY OBSERVATIONS...

STATION/POSITION TIME  TEMP    WIND        PRES    WAVE   SWELL
                       AIR SEA DIR/SP/G            HT/PER HT/PER/DIR
                 (UTC) (F)     (DEG/KT/KT) (MB)    (FT/S) (FT/S/D)
FOLLY BEACH CMAN 0900   75      90/ 20/ 23 1017.5F
BUOY 41004       1000   72 82  110/ 19/ 25 1016.1R   7/ 8
BUOY 41008       1000   76 84   80/ 14/ 16 1014.4S   5/ 6   3/ 60/ 7
5E ST. MARYS GA  1000      84                N/A     4/ 8
FRYING PAN BUOY  NOT AVBL
BUOY 41025       1000   78      70/ 17/ 21 1018.6S   6/ 8   3/ 60/ 8
CAPE LOOKOUT NC  0900   72      20/ 17/ 20 1019.2F
BUOY 41002       0950   76 82   90/ 19/ 23 1015.8R   7/ 8   2/ 40/11
BUOY 41010       1000   79 85   50/ 14/ 16 1012.0F   7/ 8   7/350/ 8
BUOY 41012       NOT AVBL
ST AUGUSTINE FL  1000   71     270/  4/  5 1014.1R
CAPERS NEARSHORE 0900   79      90/ 21/ 23   N/A
FRIPP NEARSHORE  NOT AVBL


$$


USA.gov is the U.S. government's official web portal to all federal, state and local government web resources and services.